Tracking 27188 objects as of 1-Apr-2023
HD Live streaming from Space Station
objects crossing your sky now

STARLINK-5674

Track STARLINK-5674 now!
10-day predictions
STARLINK-5674 is classified as:


NORAD ID: 55465
Int'l Code: 2023-015S
Perigee: 448.4 km
Apogee: 450.2 km
Inclination: 43.0 °
Period: 93.4 minutes
Semi major axis: 6820 km
RCS: Unknown
Launch date: February 2, 2023
Source: United States (US)
Launch site: AIR FORCE EASTERN TEST RANGE (AFETR)
Your satellite tracking list
Your tracking list is empty




NASA's NSSDC Master Catalog

Two Line Element Set (TLE):
1 55465U 23015S   23090.91667824 -.00935663  00000-0 -23937-1 0  9992
2 55465  43.0015  43.8098 0001316 256.6951  66.6870 15.41328637  9009
Source of the keplerian elements: AFSPC